You are not logged in, Click here to log in
機場資訊:WSSS Welcome to Taiwan Airways 台灣虛擬航空
ICAO: WSSS Country: 新加坡樟宜
Latitude: 1.36442 Longitude: 103.992
Total Arrivals: 84 Total Departures: 81
Latest Arrival: SQ7867 (RCKH-WSSS)Chun Tang. Chiang Latest Departure: D3L16 (WSSS-VHHH)Chun Tang. Chiang
Scenery:
METAR : WSSS 211500Z VRB01KT 9999 FEW018 BKN150 28/24 Q1010 NOSIG

新加坡樟宜機場SIN